Wind_Speed
11 11 11 11 11 11 12 12 12 11 12 12 12 11 11 11 10 10 10 10 10 10 9 9 8 7 7 7 6 6 6 6 6 5 5 5 4 4 4 4 3 3 3
10 10 10 10 11 10 10 11 11 11 11 11 11 10 10 10 10 10 10 9 9 9 8 8 7 7 7 6 6 6 6 6 6 5 5 4 4 3 3 3 3 3 3
10 10 10 10 10 10 9 10 11 11 11 10 10 10 10 9 9 9 9 8 8 8 7 7 7 7 7 7 6 6 6 6 6 5 4 4 4 3 3 3 3 3 3
9 9 9 9 9 9 9 10 10 10 10 10 9 9 9 9 8 9 8 8 8 7 7 6 6 6 6 6 6 6 5 5 5 5 4 4 4 3 3 3 3 3 4
9 9 9 8 8 8 9 9 9 9 9 9 9 8 8 8 8 8 7 7 7 7 6 6 6 6 6 5 5 5 5 5 5 4 4 4 4 4 4 4 3 3 4
9 8 8 8 8 8 8 9 9 8 8 8 8 8 7 7 7 7 7 7 7 6 5 6 6 5 5 5 5 5 5 5 5 4 4 4 4 4 4 4 3 3 4
9 8 8 7 8 8 7 8 8 7 7 7 7 7 7 7 7 6 6 6 6 5 5 5 5 6 6 5 5 5 5 5 4 4 4 4 4 4 4 3 3 3 3
8 8 7 7 7 7 8 7 7 7 6 7 7 7 6 6 6 6 5 5 5 5 5 5 5 5 5 5 5 5 4 4 4 3 3 3 3 3 3 2 3 3 3
8 8 7 7 7 7 7 7 7 6 6 6 6 6 5 6 5 5 5 5 5 4 4 4 5 5 5 5 5 4 4 4 4 3 3 3 3 2 3 2 3 3 3
8 7 7 7 7 7 7 7 7 6 6 5 5 5 5 4 4 4 4 4 5 4 4 4 4 4 5 5 4 4 4 3 3 3 3 3 2 2 2 2 3 3 3
8 8 7 7 8 7 7 7 6 6 5 4 4 4 4 4 4 4 3 4 4 3 4 4 4 4 4 4 3 3 3 3 3 2 2 2 2 2 2 3 3 3 3
8 8 7 7 8 8 7 7 6 5 5 4 4 3 3 3 3 3 3 3 3 3 4 4 4 4 4 3 3 2 3 3 3 2 1 2 2 2 2 3 3 3 3
7 8 7 7 8 8 8 7 6 5 4 4 3 3 3 3 2 2 2 2 3 3 3 3 3 4 3 3 3 2 2 2 2 2 2 2 2 2 2 3 3 3 3
7 8 8 8 8 8 8 7 6 5 4 3 3 2 3 3 3 2 2 2 2 2 2 2 2 3 2 2 2 2 1 1 1 1 2 2 2 2 3 3 3 3 4
8 8 8 8 8 8 8 8 8 6 4 3 2 2 2 2 2 2 2 1 1 1 1 2 2 2 2 2 1 1 1 1 1 1 1 2 2 2 2 3 3 3 3
8 8 8 8 9 9 9 9 9 8 5 5 4 4 3 2 1 1 1 1 1 1 1 1 1 2 2 2 1 1 1 1 1 1 1 1 2 2 2 3 3 4 4
7 8 8 8 9 10 10 11 10 9 7 7 6 6 5 4 3 2 2 1 1 0 1 0 1 2 2 2 2 1 2 2 2 2 2 2 2 3 3 4 3 4 4
7 8 8 9 9 10 10 10 10 9 9 9 8 7 6 5 5 4 3 2 1 1 1 2 1 2 3 3 3 3 3 3 3 3 3 3 3 3 4 4 5 5 5
6 7 7 8 9 9 10 10 10 10 10 10 9 8 8 7 6 5 4 3 2 2 2 3 2 2 2 3 3 3 3 4 4 4 4 4 4 5 5 5 5 6 5
6 6 7 8 8 9 9 9 10 10 11 11 10 9 9 8 7 6 5 4 4 3 3 3 3 3 3 4 4 3 4 4 4 5 5 5 5 6 6 6 6 6 7
6 6 7 7 8 8 9 9 9 10 10 10 10 10 10 9 8 6 6 6 5 4 4 4 4 3 3 4 4 4 4 5 5 5 5 5 6 6 6 7 7 7 7
5 6 6 7 8 8 8 8 8 9 10 10 10 10 9 9 8 7 6 6 6 6 5 4 4 3 4 4 4 5 5 5 5 5 5 5 6 6 6 7 7 8 8
6 6 6 6 7 8 8 8 8 9 9 10 10 10 9 9 9 8 7 7 7 6 6 5 4 4 5 5 5 5 6 6 6 7 7 7 7 7 7 7 8 8 9
6 6 6 6 7 7 8 8 9 10 10 11 10 10 10 10 10 9 8 8 7 7 7 6 5 5 6 6 6 6 6 7 8 8 8 8 8 8 8 8 9 9 10
6 6 5 6 6 7 7 8 9 9 10 10 10 10 11 11 12 11 10 9 8 7 7 7 6 6 7 7 7 7 7 8 8 8 8 8 9 9 9 9 9 10 10
6 6 5 5 6 7 7 8 9 9 10 10 10 11 12 12 12 12 11 10 9 8 8 8 8 8 8 8 8 8 8 8 8 9 9 9 10 10 10 10 10 11 11
Wind_Direction
80 84 87 85 85 87 89 90 92 91 91 92 93 95 98 102 105 108 109 111 113 112 115 116 118 121 125 127 126 123 124 129 134 133 136 142 143 142 143 142 149 156 167
80 82 82 81 81 83 86 89 91 93 93 93 93 93 96 100 103 104 107 111 115 117 119 120 119 121 125 123 125 127 124 121 125 125 130 138 142 135 137 137 141 156 163
80 79 78 78 80 82 84 87 89 92 93 94 94 93 94 96 98 101 103 109 116 120 120 122 123 122 120 120 123 128 132 127 121 124 130 139 143 136 133 139 149 151 151
76 75 76 76 78 80 82 85 87 90 93 95 95 95 97 97 99 100 101 104 110 115 118 123 125 125 122 122 122 127 130 125 120 121 122 129 138 135 129 129 138 138 149
71 72 73 71 73 76 79 84 85 88 93 96 96 97 99 98 100 100 101 101 104 109 114 121 127 129 127 130 126 126 124 119 113 115 116 122 132 127 122 122 131 143 154
70 70 70 70 68 71 75 80 83 86 90 95 96 98 100 101 101 100 100 101 102 104 112 121 126 124 128 131 125 123 122 122 117 117 115 116 121 121 120 121 131 138 151
73 70 67 65 65 69 73 77 81 84 87 91 94 96 98 102 100 100 101 102 102 103 111 118 123 122 127 128 126 127 121 123 121 122 119 117 114 118 122 118 123 132 145
72 67 63 61 60 65 70 73 77 80 83 88 93 95 95 101 100 99 103 106 102 99 105 114 118 116 118 124 124 122 125 124 125 128 124 126 116 117 130 122 112 119 128
69 64 60 57 53 62 67 71 73 76 80 85 89 94 95 96 98 97 105 109 101 97 100 108 112 116 120 124 122 118 126 129 130 132 134 139 129 125 139 145 127 121 127
62 59 59 58 53 58 63 65 64 69 74 83 85 87 88 92 94 90 104 111 111 104 102 111 122 125 127 130 127 125 132 140 139 141 145 144 138 141 153 163 153 148 143
56 57 59 57 54 54 55 53 57 60 67 78 84 84 79 80 85 82 98 108 112 108 110 112 120 128 132 136 135 135 137 148 149 149 157 163 163 160 163 165 169 165 167
55 55 55 57 52 51 49 49 55 61 63 69 71 69 67 66 76 93 107 111 107 112 115 112 124 135 137 135 132 135 142 152 156 167 177 186 184 185 192 195 190 184 187
53 54 54 54 52 53 48 48 56 58 56 59 60 63 60 64 86 102 106 108 117 123 126 125 127 134 135 127 127 126 140 153 161 177 191 202 211 218 228 218 211 207 209
54 52 51 53 52 50 46 45 44 45 50 59 61 55 53 62 92 110 122 115 129 142 149 157 154 143 133 129 132 143 144 141 174 184 212 222 231 242 250 244 239 235 226
53 50 49 49 47 42 38 39 40 39 41 42 35 35 50 74 103 103 97 116 137 166 162 155 161 166 149 151 172 179 183 186 194 233 253 250 252 263 263 257 258 256 248
53 49 44 44 44 40 37 36 32 35 42 43 47 42 45 47 48 27 65 100 132 151 185 165 178 182 180 193 192 197 201 208 229 268 277 266 268 269 274 277 266 262 257
52 48 46 46 44 44 42 40 42 43 41 34 40 43 50 54 52 39 25 48 105 64 357 319 230 231 232 230 235 250 258 240 258 276 277 274 270 270 276 285 286 280 270
50 44 45 45 43 43 41 39 41 41 39 40 41 42 43 39 32 32 28 32 22 356 345 343 294 269 258 255 263 270 274 264 265 273 274 274 281 282 280 283 289 292 280
46 39 39 38 41 40 43 44 39 39 38 38 39 37 37 37 35 36 36 32 5 344 349 345 309 287 273 265 271 266 258 264 269 267 269 271 279 286 287 284 285 287 285
39 35 31 29 31 37 42 44 39 37 37 36 33 32 32 31 31 30 26 18 358 343 333 323 307 283 267 263 268 265 259 262 265 269 272 275 279 285 285 283 282 282 284
32 30 29 29 30 30 34 38 37 34 33 30 27 24 25 24 22 17 11 0 353 343 331 329 317 297 285 265 261 259 261 266 270 273 272 273 277 282 284 282 282 280 279
21 21 23 32 30 27 30 30 30 30 28 25 23 20 16 13 12 9 358 348 343 340 332 323 315 304 296 277 264 261 266 271 268 271 273 275 279 282 285 285 282 280 278
11 14 20 21 22 25 27 26 23 23 21 19 18 17 13 7 2 354 350 343 337 333 326 319 310 302 296 280 270 267 271 275 274 276 274 276 278 282 286 288 289 287 283
7 9 10 10 15 18 21 22 20 18 15 13 14 13 10 3 359 355 347 342 335 329 326 323 313 307 295 283 273 269 270 277 278 280 277 279 279 280 281 284 287 287 285
359 356 358 1 7 7 8 10 10 10 10 9 9 8 6 360 356 354 347 343 339 328 316 311 307 302 294 285 277 273 274 279 278 281 282 284 283 279 280 283 282 282 284
351 347 347 349 353 356 356 357 360 1 2 1 0 359 357 356 354 351 346 342 338 328 321 314 308 303 297 291 280 276 280 280 277 277 278 282 284 285 284 283 279 280 281
Height
5889 5888 5887 5887 5886 5885 5885 5885 5884 5884 5884 5883 5883 5883 5883 5883 5883 5883 5883 5883 5883 5883 5883 5884 5885 5885 5886 5886 5887 5887 5887 5887 5888 5888 5888 5889 5889 5889 5890 5890 5890 5890 5890
5891 5889 5889 5888 5887 5887 5886 5886 5886 5886 5885 5885 5885 5884 5884 5884 5884 5884 5884 5884 5884 5884 5884 5885 5886 5886 5887 5887 5887 5888 5888 5888 5888 5889 5889 5889 5890 5890 5890 5890 5890 5890 5890
5892 5891 5891 5890 5889 5889 5888 5888 5887 5887 5887 5886 5886 5886 5885 5885 5885 5885 5885 5885 5885 5885 5885 5886 5886 5887 5887 5888 5888 5888 5889 5889 5889 5890 5890 5890 5890 5890 5890 5890 5890 5890 5891
5893 5893 5892 5892 5891 5890 5890 5889 5889 5888 5888 5888 5887 5887 5887 5886 5886 5886 5886 5886 5886 5886 5886 5887 5887 5888 5888 5888 5889 5889 5890 5890 5890 5891 5891 5891 5891 5891 5891 5891 5891 5891 5891
5895 5894 5894 5893 5892 5891 5891 5890 5890 5890 5889 5889 5889 5888 5888 5887 5887 5887 5887 5887 5887 5887 5887 5888 5888 5888 5889 5889 5889 5890 5890 5891 5891 5891 5891 5891 5891 5891 5892 5891 5891 5891 5891
5896 5896 5895 5894 5894 5893 5892 5892 5891 5891 5890 5890 5890 5889 5889 5889 5888 5888 5888 5888 5888 5888 5888 5888 5889 5889 5889 5890 5890 5890 5891 5891 5892 5892 5892 5892 5892 5892 5892 5892 5892 5892 5892
5898 5897 5897 5896 5895 5894 5894 5893 5892 5892 5891 5891 5891 5890 5890 5890 5889 5889 5889 5889 5888 5889 5889 5889 5889 5890 5890 5890 5891 5891 5891 5892 5892 5893 5893 5893 5893 5893 5893 5893 5892 5892 5892
5899 5899 5898 5897 5896 5896 5895 5894 5893 5893 5892 5892 5892 5891 5891 5891 5891 5890 5890 5889 5889 5889 5890 5890 5890 5890 5891 5891 5891 5892 5892 5893 5893 5893 5893 5893 5893 5893 5893 5893 5893 5893 5893
5901 5900 5899 5898 5897 5897 5896 5895 5894 5894 5893 5893 5893 5892 5892 5892 5892 5891 5891 5890 5890 5890 5890 5890 5891 5891 5891 5892 5892 5892 5893 5893 5893 5893 5893 5893 5893 5893 5893 5893 5893 5893 5893
5902 5901 5900 5899 5898 5897 5896 5896 5895 5895 5894 5894 5893 5893 5893 5892 5892 5892 5891 5891 5891 5891 5891 5891 5891 5891 5892 5892 5893 5893 5893 5893 5894 5894 5894 5893 5893 5893 5893 5893 5893 5893 5894
5904 5903 5902 5901 5900 5898 5897 5896 5896 5895 5895 5894 5894 5893 5893 5893 5892 5892 5892 5892 5892 5892 5892 5892 5892 5892 5892 5893 5893 5893 5894 5894 5894 5894 5894 5894 5893 5893 5893 5893 5893 5893 5893
5905 5904 5903 5902 5901 5899 5898 5897 5896 5896 5895 5895 5894 5894 5894 5893 5893 5892 5892 5892 5892 5892 5892 5893 5892 5893 5893 5893 5893 5893 5894 5894 5894 5894 5894 5894 5894 5893 5893 5893 5893 5893 5893
5907 5906 5904 5903 5902 5901 5899 5898 5897 5897 5896 5895 5895 5894 5894 5894 5893 5893 5893 5892 5892 5892 5893 5893 5893 5893 5893 5893 5893 5894 5894 5894 5894 5893 5893 5893 5894 5893 5893 5893 5893 5893 5893
5908 5907 5906 5904 5903 5902 5900 5899 5898 5897 5897 5896 5895 5895 5894 5894 5893 5893 5893 5893 5893 5893 5893 5893 5893 5893 5893 5893 5893 5893 5894 5894 5893 5893 5893 5893 5893 5893 5893 5892 5892 5892 5892
5910 5908 5907 5906 5904 5903 5901 5900 5899 5898 5897 5896 5896 5895 5895 5894 5893 5893 5893 5893 5892 5893 5893 5893 5893 5893 5893 5893 5893 5893 5893 5893 5893 5893 5893 5892 5893 5892 5892 5892 5891 5891 5892
5911 5910 5909 5907 5906 5904 5903 5901 5900 5898 5898 5897 5896 5895 5895 5894 5894 5893 5893 5893 5892 5892 5892 5893 5893 5893 5893 5893 5893 5893 5893 5893 5893 5893 5892 5892 5892 5892 5892 5891 5891 5890 5891
5912 5911 5910 5909 5907 5905 5904 5903 5901 5900 5899 5897 5897 5896 5894 5894 5893 5893 5893 5892 5892 5892 5892 5892 5892 5892 5892 5893 5893 5893 5893 5893 5893 5892 5892 5892 5891 5891 5891 5891 5890 5890 5890
5913 5912 5911 5910 5908 5907 5905 5904 5903 5901 5900 5898 5897 5896 5895 5894 5894 5893 5893 5892 5892 5892 5892 5892 5892 5892 5892 5892 5892 5892 5892 5892 5892 5891 5891 5891 5891 5891 5890 5890 5890 5889 5889
5915 5914 5912 5911 5909 5908 5907 5905 5904 5903 5902 5900 5898 5897 5896 5896 5895 5894 5894 5893 5892 5892 5892 5892 5891 5891 5891 5891 5891 5891 5891 5891 5890 5890 5890 5890 5890 5890 5889 5889 5889 5888 5888
5916 5915 5913 5912 5910 5909 5908 5907 5905 5904 5903 5901 5900 5899 5897 5896 5895 5895 5894 5894 5893 5892 5892 5891 5891 5890 5890 5890 5890 5890 5890 5889 5889 5889 5889 5889 5889 5888 5888 5888 5887 5887 5887
5917 5916 5914 5913 5912 5910 5909 5908 5907 5905 5904 5902 5901 5899 5898 5897 5896 5895 5894 5894 5893 5892 5891 5890 5890 5889 5889 5889 5889 5889 5889 5888 5888 5888 5888 5887 5887 5887 5886 5886 5886 5885 5885
5917 5916 5915 5914 5913 5911 5910 5909 5908 5906 5905 5903 5902 5900 5899 5898 5896 5895 5894 5893 5892 5891 5890 5890 5889 5889 5888 5888 5888 5888 5888 5888 5887 5887 5886 5886 5886 5885 5885 5884 5884 5883 5883
5918 5917 5916 5915 5914 5912 5911 5910 5909 5907 5906 5904 5902 5901 5899 5898 5896 5895 5894 5893 5891 5891 5890 5889 5888 5888 5888 5887 5887 5887 5887 5886 5886 5885 5885 5884 5884 5883 5883 5882 5882 5881 5881
5919 5917 5916 5915 5914 5913 5912 5911 5909 5908 5906 5905 5903 5901 5900 5898 5896 5895 5893 5892 5891 5890 5889 5888 5887 5887 5886 5886 5885 5885 5885 5885 5884 5883 5883 5882 5882 5881 5881 5880 5880 5879 5878
5919 5918 5917 5916 5915 5914 5912 5911 5910 5908 5907 5905 5903 5901 5900 5898 5896 5894 5892 5891 5889 5888 5888 5886 5886 5885 5885 5884 5883 5883 5883 5882 5881 5881 5881 5880 5879 5879 5878 5878 5877 5877 5876
5919 5918 5917 5916 5915 5914 5912 5911 5910 5908 5907 5905 5903 5901 5899 5898 5896 5894 5892 5890 5888 5887 5886 5885 5884 5884 5883 5882 5881 5881 5880 5880 5879 5879 5878 5877 5877 5876 5875 5875 5874 5874 5873